Location: Davayat
(45.9471°N, 3.1105°E)
Time: 23:11:52
(UTC+00:00)

Meteor 2-12 Rocket - Pass Details

Date: 24 April 2021
Orbit: 935 x 958 km, 82.5° (Epoch: 16 May)

Event Time Altitude Azimuth Distance (km) Brightness Sun altitude
Rises 00:37:29 0° 343° (NNW) 3,628 8.3 -30.0°
Reaches altitude 10° 00:40:10 10° 336° (NNW) 2,675 7.4 -29.9°
Enters shadow 00:44:54 35° 287° (WNW) 1,487 5.4 -29.7°
